Location: Pianadetto
(44.4000°N, 10.1000°E)
Time: 21:07:07
(UTC+00:00)

Cosmos 2298 Rocket - Pass Details

Date: 26 May 2022
Orbit: 775 x 784 km, 74.0° (Epoch: 02 July)

Event Time Altitude Azimuth Distance (km) Brightness Sun altitude
Exits shadow 00:07:45 62° 206° (SSW) 874 3.9 -23.5°
Maximum altitude 00:08:41 87° 289° (WNW) 784 3.9 -23.4°
Drops below altitude 10° 00:14:01 10° 20° (NNE) 2,337 7.6 -23.2°
Sets 00:16:25 0° 21° (NNE) 3,270 8.7 -23.1°
